timestamp,wind_dir_avg,wind_spd_avg,wind_spd_max_dir,wind_spd_gust,battery_voltage,lat,long
2022-09-17 00:04:00+00:00,260.0,6.6,263.0,7.18,12.57,47.59359,-54.27349
2022-09-17 00:14:01+00:00,264.0,6.98,265.0,7.65,12.57,47.59359,-54.27349
2022-09-17 00:24:01+00:00,269.0,7.43,269.0,8.42,12.57,47.59359,-54.27349
2022-09-17 00:34:01+00:00,269.0,7.57,269.0,8.57,12.57,47.59359,-54.27349
2022-09-17 00:44:01+00:00,271.0,7.47,273.0,8.61,12.57,47.59359,-54.27349
2022-09-17 00:54:01+00:00,276.0,7.58,274.0,8.72,12.57,47.59359,-54.27349
2022-09-17 01:04:01+00:00,279.0,7.62,284.0,8.8,12.57,47.59359,-54.27349
2022-09-17 01:14:01+00:00,279.0,7.09,283.0,7.98,12.57,47.59359,-54.27349
2022-09-17 01:24:01+00:00,276.0,6.94,280.0,7.57,12.57,47.59359,-54.27349
2022-09-17 01:34:01+00:00,287.0,6.7,287.0,7.33,12.57,47.59359,-54.27349
2022-09-17 01:44:01+00:00,285.0,6.89,289.0,7.71,12.57,47.59359,-54.27349
2022-09-17 01:54:01+00:00,288.0,6.89,293.0,7.62,12.57,47.59359,-54.27349
2022-09-17 02:04:01+00:00,286.0,7.08,286.0,8.02,12.57,47.59359,-54.27349
2022-09-17 02:14:01+00:00,283.0,7.05,283.0,8.22,12.57,47.59359,-54.27349
2022-09-17 02:24:01+00:00,288.0,6.41,289.0,7.14,12.57,47.59359,-54.27349
2022-09-17 02:34:01+00:00,282.0,5.36,282.0,6.42,12.57,47.59359,-54.27349
2022-09-17 02:44:01+00:00,272.0,6.27,271.0,6.87,12.57,47.59359,-54.27349
2022-09-17 02:54:01+00:00,269.0,6.52,272.0,7.5,12.57,47.59359,-54.27349
2022-09-17 03:04:01+00:00,270.0,6.46,271.0,7.0,12.57,47.59359,-54.27349
2022-09-17 03:14:00+00:00,264.0,5.82,265.0,6.67,12.49,47.59359,-54.27349
2022-09-17 03:24:00+00:00,263.0,5.53,261.0,6.6,12.49,47.59359,-54.27349
2022-09-17 03:34:00+00:00,261.0,5.44,264.0,6.34,12.49,47.59359,-54.27349
2022-09-17 03:44:00+00:00,270.0,6.12,271.0,7.13,12.49,47.59359,-54.27349
2022-09-17 03:54:00+00:00,266.0,5.2,260.0,6.0,12.49,47.59359,-54.27349
2022-09-17 04:04:00+00:00,255.0,6.48,256.0,7.04,12.49,47.59359,-54.27349
2022-09-17 04:14:01+00:00,261.0,6.63,260.0,7.39,12.49,47.59359,-54.27349
2022-09-17 04:24:01+00:00,255.0,6.62,256.0,7.68,12.49,47.59359,-54.27349
2022-09-17 04:34:01+00:00,248.0,5.61,245.0,6.49,12.49,47.59359,-54.27349
2022-09-17 04:44:01+00:00,255.0,6.05,258.0,7.03,12.49,47.59359,-54.27349
2022-09-17 04:54:01+00:00,253.0,6.52,255.0,7.64,12.49,47.59359,-54.27349
2022-09-17 05:04:01+00:00,249.0,6.49,248.0,7.53,12.49,47.59359,-54.27349
2022-09-17 05:14:00+00:00,250.0,7.11,245.0,7.75,12.49,47.59359,-54.27349
2022-09-17 05:24:00+00:00,261.0,6.57,263.0,7.45,12.49,47.59359,-54.27349
2022-09-17 05:34:00+00:00,269.0,6.41,271.0,7.54,12.49,47.59359,-54.27349
2022-09-17 05:44:00+00:00,267.0,6.38,269.0,7.93,12.49,47.59359,-54.27349
2022-09-17 05:54:00+00:00,268.0,6.19,268.0,6.8,12.49,47.59359,-54.27349
2022-09-17 06:04:00+00:00,264.0,6.83,268.0,7.73,12.49,47.59359,-54.27349
2022-09-17 06:14:01+00:00,253.0,5.85,254.0,6.43,12.41,47.59359,-54.27349
2022-09-17 06:24:01+00:00,255.0,6.04,257.0,6.67,12.41,47.59359,-54.27349
2022-09-17 06:34:01+00:00,265.0,6.45,269.0,7.51,12.41,47.59359,-54.27349
2022-09-17 06:44:01+00:00,261.0,5.5,264.0,6.19,12.41,47.59359,-54.27349
2022-09-17 06:54:01+00:00,249.0,6.63,256.0,7.56,12.41,47.59359,-54.27349
2022-09-17 07:04:01+00:00,253.0,7.46,251.0,8.29,12.41,47.59359,-54.27349
2022-09-17 07:14:01+00:00,254.0,7.42,253.0,8.15,12.41,47.59359,-54.27349
2022-09-17 07:24:01+00:00,261.0,6.29,263.0,8.94,12.41,47.59359,-54.27349
2022-09-17 07:34:01+00:00,270.0,6.96,273.0,8.09,12.41,47.59359,-54.27349
2022-09-17 07:44:01+00:00,267.0,7.79,260.0,9.48,12.41,47.59359,-54.27349
2022-09-17 07:54:01+00:00,270.0,7.37,273.0,8.17,12.41,47.59359,-54.27349
2022-09-17 08:04:01+00:00,264.0,7.15,266.0,7.94,12.41,47.59359,-54.27349
2022-09-17 08:14:01+00:00,272.0,7.99,277.0,8.86,12.33,47.59359,-54.27349
2022-09-17 08:24:01+00:00,245.0,7.02,247.0,8.91,12.33,47.59359,-54.27349
2022-09-17 08:34:01+00:00,256.0,7.42,253.0,8.19,12.33,47.59359,-54.27349
2022-09-17 08:44:01+00:00,277.0,7.18,275.0,7.96,12.33,47.59359,-54.27349
2022-09-17 08:54:01+00:00,274.0,6.75,270.0,7.44,12.33,47.59359,-54.27349
2022-09-17 09:04:01+00:00,269.0,7.2,272.0,8.01,12.33,47.59359,-54.27349
2022-09-17 09:14:00+00:00,274.0,7.1,269.0,8.28,12.33,47.59359,-54.27349
2022-09-17 09:24:00+00:00,276.0,7.03,276.0,7.7,12.33,47.59359,-54.27349
2022-09-17 09:34:00+00:00,275.0,7.53,277.0,9.31,12.33,47.59359,-54.27349
2022-09-17 09:44:00+00:00,276.0,7.0,279.0,8.85,12.33,47.59359,-54.27349
2022-09-17 09:54:00+00:00,284.0,7.61,293.0,9.1,12.33,47.59359,-54.27349
2022-09-17 10:04:00+00:00,287.0,7.63,284.0,9.3,12.33,47.59359,-54.27349
2022-09-17 10:14:00+00:00,309.0,10.3,308.0,11.67,12.41,47.59359,-54.27349
2022-09-17 10:24:00+00:00,291.0,8.93,286.0,10.33,12.41,47.59359,-54.27349
2022-09-17 10:34:00+00:00,290.0,7.08,296.0,8.34,12.41,47.59359,-54.27349
2022-09-17 10:44:00+00:00,303.0,8.87,303.0,10.44,12.41,47.59359,-54.27349
2022-09-17 10:54:00+00:00,298.0,9.19,291.0,10.74,12.41,47.59359,-54.27349
2022-09-17 11:04:00+00:00,296.0,9.44,296.0,10.74,12.41,47.59359,-54.27349
2022-09-17 11:14:01+00:00,291.0,8.71,292.0,10.87,13.6,47.59359,-54.27349
2022-09-17 11:24:01+00:00,300.0,9.1,302.0,10.25,13.6,47.59359,-54.27349
2022-09-17 11:34:01+00:00,294.0,9.66,295.0,10.79,13.6,47.59359,-54.27349
2022-09-17 11:44:01+00:00,288.0,8.88,288.0,10.51,13.6,47.59359,-54.27349
2022-09-17 11:54:01+00:00,284.0,8.53,289.0,9.76,13.6,47.59359,-54.27349
2022-09-17 12:04:01+00:00,291.0,9.06,285.0,10.58,13.6,47.59359,-54.27349
2022-09-17 12:14:00+00:00,297.0,9.32,298.0,11.12,13.76,47.59359,-54.27349
2022-09-17 12:24:00+00:00,279.0,9.1,271.0,10.63,13.76,47.59359,-54.27349
2022-09-17 12:34:00+00:00,292.0,9.68,291.0,11.33,13.76,47.59359,-54.27349
2022-09-17 12:44:00+00:00,292.0,8.28,280.0,10.12,13.76,47.59359,-54.27349
2022-09-17 12:54:00+00:00,297.0,8.74,299.0,9.67,13.76,47.59359,-54.27349
2022-09-17 13:04:00+00:00,306.0,9.59,302.0,11.1,13.76,47.59359,-54.27349
2022-09-17 13:14:01+00:00,292.0,8.68,297.0,10.61,13.76,47.59359,-54.27349
2022-09-17 13:24:01+00:00,294.0,12.36,295.0,13.86,13.76,47.59359,-54.27349
2022-09-17 13:34:01+00:00,295.0,10.0,300.0,11.11,13.76,47.59359,-54.27349
2022-09-17 13:44:01+00:00,280.0,7.09,279.0,8.2,13.76,47.59359,-54.27349
2022-09-17 13:54:01+00:00,269.0,8.1,268.0,9.47,13.76,47.59359,-54.27349
2022-09-17 14:04:01+00:00,264.0,9.26,260.0,11.07,13.76,47.59359,-54.27349
2022-09-17 14:14:00+00:00,285.0,9.97,286.0,11.1,14.16,47.59359,-54.27349
2022-09-17 14:24:00+00:00,280.0,9.09,283.0,10.61,14.16,47.59359,-54.27349
2022-09-17 14:34:00+00:00,276.0,8.71,270.0,10.34,14.16,47.59359,-54.27349
2022-09-17 14:44:00+00:00,267.0,5.84,270.0,10.41,14.16,47.59359,-54.27349
2022-09-17 14:54:00+00:00,292.0,8.53,285.0,10.01,14.16,47.59359,-54.27349
2022-09-17 15:04:00+00:00,268.0,8.16,268.0,11.23,14.16,47.59359,-54.27349
2022-09-17 15:14:00+00:00,281.0,8.68,281.0,9.42,13.84,47.59359,-54.27349
2022-09-17 15:24:00+00:00,311.0,7.4,315.0,8.39,13.84,47.59359,-54.27349
2022-09-17 15:34:00+00:00,287.0,4.73,282.0,6.2,13.84,47.59359,-54.27349
2022-09-17 15:44:00+00:00,276.0,8.46,286.0,10.33,13.84,47.59359,-54.27349
2022-09-17 15:54:00+00:00,286.0,7.06,300.0,8.99,13.84,47.59359,-54.27349
2022-09-17 16:04:00+00:00,282.0,7.4,283.0,9.17,13.84,47.59359,-54.27349
2022-09-17 16:14:01+00:00,267.0,4.91,266.0,6.1,13.84,47.59359,-54.27349
2022-09-17 16:24:01+00:00,294.0,7.94,304.0,9.53,13.84,47.59359,-54.27349
2022-09-17 16:34:01+00:00,280.0,7.55,289.0,10.28,13.84,47.59359,-54.27349
2022-09-17 16:44:01+00:00,292.0,9.16,293.0,10.72,13.84,47.59359,-54.27349
2022-09-17 16:54:01+00:00,286.0,8.33,287.0,9.82,13.84,47.59359,-54.27349
2022-09-17 17:04:01+00:00,282.0,8.99,285.0,10.24,13.84,47.59359,-54.27349
2022-09-17 17:14:00+00:00,291.0,7.44,284.0,9.07,13.84,47.59359,-54.27349
2022-09-17 17:24:00+00:00,284.0,7.56,288.0,8.3,13.84,47.59359,-54.27349
2022-09-17 17:34:00+00:00,270.0,7.07,271.0,8.02,13.84,47.59359,-54.27349
2022-09-17 17:44:00+00:00,277.0,6.56,272.0,7.53,13.84,47.59359,-54.27349
2022-09-17 17:54:00+00:00,276.0,9.39,276.0,11.76,13.84,47.59359,-54.27349
2022-09-17 18:04:00+00:00,286.0,10.24,287.0,11.74,13.84,47.59359,-54.27349
2022-09-17 18:14:01+00:00,282.0,7.44,284.0,8.74,13.84,47.59359,-54.27349
2022-09-17 18:24:01+00:00,270.0,9.08,275.0,11.86,13.84,47.59359,-54.27349
2022-09-17 18:34:01+00:00,271.0,7.73,274.0,8.84,13.84,47.59359,-54.27349
2022-09-17 18:44:01+00:00,263.0,8.79,265.0,9.98,13.84,47.59359,-54.27349
2022-09-17 18:54:01+00:00,286.0,8.97,289.0,10.54,13.84,47.59359,-54.27349
2022-09-17 19:04:01+00:00,288.0,8.19,288.0,8.99,13.84,47.59359,-54.27349
2022-09-17 19:14:01+00:00,300.0,9.27,303.0,10.87,13.68,47.59359,-54.27349
2022-09-17 19:24:01+00:00,302.0,9.66,303.0,10.56,13.68,47.59359,-54.27349
2022-09-17 19:34:01+00:00,307.0,8.09,310.0,9.45,13.68,47.59359,-54.27349
2022-09-17 19:44:01+00:00,297.0,8.46,299.0,9.65,13.68,47.59359,-54.27349
2022-09-17 19:54:01+00:00,307.0,8.58,309.0,9.82,13.68,47.59359,-54.27349
2022-09-17 20:04:01+00:00,303.0,10.17,307.0,12.64,13.68,47.59359,-54.27349
2022-09-17 20:14:00+00:00,303.0,8.92,307.0,10.11,13.6,47.59359,-54.27349
2022-09-17 20:24:00+00:00,305.0,8.85,304.0,10.78,13.6,47.59359,-54.27349
2022-09-17 20:34:00+00:00,297.0,9.39,297.0,10.67,13.6,47.59359,-54.27349
2022-09-17 20:44:00+00:00,302.0,8.06,296.0,9.15,13.6,47.59359,-54.27349
2022-09-17 20:54:00+00:00,301.0,9.04,302.0,10.78,13.6,47.59359,-54.27349
2022-09-17 21:04:00+00:00,309.0,8.27,311.0,10.44,13.6,47.59359,-54.27349
2022-09-17 21:14:00+00:00,302.0,8.01,291.0,9.32,13.21,47.59359,-54.27349
2022-09-17 21:24:00+00:00,298.0,7.99,292.0,10.4,13.21,47.59359,-54.27349
2022-09-17 21:34:00+00:00,299.0,8.06,295.0,9.0,13.21,47.59359,-54.27349
2022-09-17 21:44:00+00:00,303.0,9.38,303.0,10.74,13.21,47.59359,-54.27349
2022-09-17 21:54:00+00:00,306.0,7.58,310.0,9.38,13.21,47.59359,-54.27349
2022-09-17 22:04:00+00:00,303.0,6.57,304.0,8.08,13.21,47.59359,-54.27349
2022-09-17 22:14:01+00:00,292.0,5.44,295.0,6.42,12.65,47.59359,-54.27349
2022-09-17 22:24:01+00:00,306.0,7.31,295.0,8.35,12.65,47.59359,-54.27349
2022-09-17 22:34:01+00:00,310.0,7.23,313.0,8.36,12.65,47.59359,-54.27349
2022-09-17 22:44:01+00:00,299.0,7.78,308.0,8.83,12.65,47.59359,-54.27349
2022-09-17 22:54:01+00:00,302.0,7.01,306.0,8.33,12.65,47.59359,-54.27349
2022-09-17 23:04:01+00:00,305.0,7.71,312.0,11.13,12.65,47.59359,-54.27349
2022-09-17 23:14:01+00:00,299.0,6.79,288.0,8.5,12.57,47.59359,-54.27349
2022-09-17 23:24:01+00:00,307.0,7.46,314.0,8.77,12.57,47.59359,-54.27349
2022-09-17 23:34:01+00:00,297.0,5.1,295.0,5.8,12.57,47.59359,-54.27349
2022-09-17 23:44:01+00:00,289.0,5.92,295.0,7.12,12.57,47.59359,-54.27349
2022-09-17 23:54:01+00:00,298.0,6.07,303.0,7.94,12.57,47.59359,-54.27349
